Weather reports worldwide

Advertisment
Navalmoral de la Mata, Spain (8254): temperature & dewpoint: 16.09.2018 23:00:00 - 22.09.2018 23:00:00 (CEST)Navalmoral de la Mata, Spain (8254): wind speed & gusts: 16.09.2018 23:00:00 - 22.09.2018 23:00:00 (CEST)Navalmoral de la Mata, Spain (8254): wind direction: 16.09.2018 23:00:00 - 22.09.2018 23:00:00 (CEST)Navalmoral de la Mata, Spain (8254): reduced air pressure: 16.09.2018 23:00:00 - 22.09.2018 23:00:00 (CEST)Navalmoral de la Mata, Spain (8254): visibility: 16.09.2018 23:00:00 - 22.09.2018 23:00:00 (CEST)Navalmoral de la Mata, Spain (8254): sunshine duration: 16.09.2018 23:00:00 - 22.09.2018 23:00:00 (CEST)Navalmoral de la Mata, Spain (8254): precipitation: 16.09.2018 23:00:00 - 22.09.2018 23:00:00 (CEST)
Date & Time tt [°C] td [°C] ff [km/h] ff [kn] fx [km/h] fx [kn] dd ppp [hPa] vv [km] sd [min] rr [mm]
22.09.2018 23:00:00 - - - - - - - - - - -
22.09.2018 22:00:00 26,6 8,5 4 2 11 6 W 1019,8 20 0 0,0
22.09.2018 21:00:00 28,8 6,8 4 2 7 4 WNW 1019,2 20 0 0,0
22.09.2018 20:00:00 33,4 4,1 4 2 18 10 WNW 1018,4 20 0 -
22.09.2018 19:00:00 36,0 3,2 4 2 22 12 WNW 1017,9 20 49 0,0
22.09.2018 18:00:00 36,6 4,8 6 4 22 12 WNW 1017,9 20 60 0,0
22.09.2018 17:00:00 37,0 5,1 6 3 26 14 WNW 1018,0 20 60 0,0
22.09.2018 16:00:00 36,6 5,8 6 3 17 9 S 1018,6 20 60 0,0
22.09.2018 15:00:00 36,2 7,3 5 3 16 9 W 1019,2 20 60 0,0
22.09.2018 14:00:00 34,7 7,7 6 4 18 10 S 1020,1 20 60 -
22.09.2018 13:00:00 32,8 8,3 8 4 22 12 ESE 1020,8 18 60 0,0
22.09.2018 12:00:00 30,2 9,7 9 5 21 11 E 1021,4 20 60 0,0
22.09.2018 11:00:00 26,2 9,9 9 5 18 10 ENE 1021,7 19 60 0,0
22.09.2018 10:00:00 22,3 12,0 5 3 10 6 E 1021,6 20 60 0,0
22.09.2018 09:00:00 17,3 12,4 4 2 6 3 ENE 1021,9 19 8 0,0
22.09.2018 08:00:00 15,3 11,1 4 2 10 5 ESE 1021,5 20 0 -
22.09.2018 07:00:00 15,3 11,1 4 2 6 4 ESE 1021,1 20 0 0,0
22.09.2018 06:00:00 15,4 10,5 2 1 3 2 E 1020,5 20 0 0,0
22.09.2018 05:00:00 15,8 10,5 1 1 7 4 S 1020,0 20 0 0,0
22.09.2018 04:00:00 16,7 10,5 3 2 7 4 E 1019,8 20 0 0,0
22.09.2018 03:00:00 17,6 10,5 1 1 6 4 SE 1019,7 20 0 0,0
22.09.2018 02:00:00 19,1 10,4 3 2 6 3 SSE 1019,2 20 0 -
22.09.2018 01:00:00 20,7 9,9 5 3 9 5 NE 1019,1 20 0 0,0
22.09.2018 00:00:00 23,7 8,9 5 3 11 6 W 1018,4 18 0 0,0
21.09.2018 23:00:00 24,1 8,9 7 4 11 6 WSW 1018,1 20 0 0,0
21.09.2018 22:00:00 24,3 10,5 6 3 7 4 WSW 1017,6 20 0 0,0
21.09.2018 21:00:00 27,7 9,0 4 2 11 6 NW 1016,6 20 0 0,0
21.09.2018 20:00:00 30,6 8,9 7 4 22 12 WNW 1016,0 20 0 -
21.09.2018 19:00:00 33,3 8,0 10 5 25 14 NW 1015,5 20 48 0,0
21.09.2018 18:00:00 34,2 8,0 9 5 21 12 W 1015,0 20 60 0,0
21.09.2018 17:00:00 34,4 8,3 8 5 25 13 NW 1015,2 20 60 0,0
21.09.2018 16:00:00 34,8 9,3 9 5 22 12 W 1015,1 20 60 0,0
21.09.2018 15:00:00 34,2 8,8 7 4 21 11 NW 1015,9 20 60 0,0
21.09.2018 14:00:00 33,1 10,4 7 4 16 8 SSW 1016,6 20 60 -
21.09.2018 13:00:00 30,8 10,8 4 2 13 7 N 1017,5 20 60 0,0
21.09.2018 12:00:00 28,7 10,9 4 2 16 8 SW 1018,1 20 60 0,0
21.09.2018 11:00:00 25,9 11,2 10 5 22 12 W 1018,3 20 60 0,0
21.09.2018 10:00:00 22,5 13,6 3 1 6 3 WSW 1018,4 20 60 0,0
21.09.2018 09:00:00 16,8 13,4 3 2 9 5 SW 1018,2 20 7 0,0
21.09.2018 08:00:00 15,9 13,1 4 2 8 5 E 1017,8 19 0 -
21.09.2018 07:00:00 16,6 13,2 3 2 6 3 ESE 1016,9 20 0 0,0
21.09.2018 06:00:00 17,3 13,3 3 1 8 4 S 1016,7 20 0 0,0
21.09.2018 05:00:00 17,9 13,7 3 2 7 4 ESE 1016,4 20 0 0,0
21.09.2018 04:00:00 18,5 13,8 4 2 7 4 ESE 1016,3 20 0 0,0
21.09.2018 03:00:00 19,8 14,1 4 2 6 4 ESE 1016,3 20 0 0,0
21.09.2018 02:00:00 20,2 14,5 2 1 8 4 WSW 1016,5 20 0 -
21.09.2018 01:00:00 20,8 13,8 3 2 8 4 NNE 1016,3 20 0 0,0
21.09.2018 00:00:00 21,8 14,2 3 2 19 10 SW 1016,2 20 0 0,0
20.09.2018 23:00:00 23,0 14,8 5 3 6 3 WSW 1015,6 20 0 0,0
20.09.2018 22:00:00 24,9 12,8 2 1 6 4 NW 1015,6 20 0 0,0
20.09.2018 21:00:00 27,1 12,0 5 3 9 5 W 1015,2 20 0 0,0
20.09.2018 20:00:00 30,2 11,2 7 4 13 7 WSW 1014,4 20 0 -
20.09.2018 19:00:00 32,6 11,2 10 6 24 13 W 1014,0 20 48 0,0
20.09.2018 18:00:00 33,1 12,1 15 8 32 18 WSW 1014,3 20 50 0,0
20.09.2018 17:00:00 33,6 17,3 5 3 29 16 SE 1014,5 20 43 0,2
20.09.2018 16:00:00 35,0 10,0 8 5 15 8 SSW 1015,0 20 54 0,0
20.09.2018 15:00:00 34,3 10,9 5 3 19 10 NE 1015,6 20 60 0,0
20.09.2018 14:00:00 34,0 10,5 3 2 19 11 SW 1016,4 20 60 -
20.09.2018 13:00:00 31,6 11,4 7 4 24 13 E 1017,6 20 60 0,0
20.09.2018 12:00:00 29,5 11,1 11 6 25 13 ENE 1018,3 20 60 0,0
20.09.2018 11:00:00 27,4 11,0 13 7 27 15 E 1018,7 20 60 0,0
20.09.2018 10:00:00 23,6 11,7 7 4 15 8 E 1018,9 20 59 0,0
20.09.2018 09:00:00 18,7 12,4 2 1 7 4 ENE 1019,2 20 16 0,0
20.09.2018 08:00:00 17,3 12,6 5 3 14 8 SSE 1019,0 20 0 -
20.09.2018 07:00:00 17,6 13,2 7 4 11 6 ENE 1018,6 20 0 0,0
20.09.2018 06:00:00 17,4 13,0 4 2 9 5 NE 1018,5 20 0 0,0
20.09.2018 05:00:00 17,8 12,6 3 2 5 3 E 1018,5 20 0 0,0
20.09.2018 04:00:00 18,0 12,8 5 3 8 4 S 1018,6 20 0 0,0
20.09.2018 03:00:00 18,5 13,0 3 2 6 3 NE 1018,7 20 0 0,0
20.09.2018 02:00:00 19,0 11,3 3 2 5 3 W 1018,8 20 0 -
20.09.2018 01:00:00 20,3 11,4 2 1 3 2 WSW 1018,8 20 0 0,0
20.09.2018 00:00:00 21,5 10,9 2 1 4 2 S 1018,6 17 0 0,0
19.09.2018 23:00:00 22,8 11,8 2 1 5 3 W 1018,5 20 0 0,0
19.09.2018 22:00:00 25,2 11,8 2 1 4 2 E 1017,8 20 0 0,0
19.09.2018 21:00:00 28,5 10,6 1 1 9 5 N 1016,9 20 0 0,0
19.09.2018 20:00:00 31,5 10,3 4 2 15 8 NW 1016,5 20 0 -
19.09.2018 19:00:00 32,2 9,7 6 3 19 10 NW 1016,3 20 0 0,0
19.09.2018 18:00:00 32,9 10,3 5 3 18 10 NW 1016,1 20 31 0,0
19.09.2018 17:00:00 34,7 9,8 6 3 18 10 WNW 1015,8 20 60 0,0
19.09.2018 16:00:00 34,3 10,2 8 4 18 10 WSW 1016,5 20 60 0,0
19.09.2018 15:00:00 32,7 11,2 6 3 21 11 NE 1017,3 20 60 0,0
19.09.2018 14:00:00 32,4 11,6 7 4 22 12 SE 1018,0 20 60 -
19.09.2018 13:00:00 30,4 12,3 10 6 20 11 ESE 1018,9 20 60 0,0
19.09.2018 12:00:00 28,0 13,9 8 4 21 11 E 1019,4 20 60 0,0
19.09.2018 11:00:00 26,0 13,5 11 6 22 12 E 1019,5 20 60 0,0
19.09.2018 10:00:00 23,9 13,8 7 4 15 8 ESE 1019,3 20 60 0,0
19.09.2018 09:00:00 19,1 13,8 5 3 9 5 E 1019,3 20 27 0,0
19.09.2018 08:00:00 17,3 13,5 6 3 10 5 NE 1019,0 20 0 -
19.09.2018 07:00:00 17,1 13,5 4 2 9 5 ENE 1018,5 16 0 0,0
19.09.2018 06:00:00 17,1 13,7 8 4 10 5 NE 1018,3 16 0 0,0
19.09.2018 05:00:00 18,1 13,8 3 1 6 4 NNE 1017,9 20 0 0,0
19.09.2018 04:00:00 18,3 13,6 2 1 5 3 ESE 1017,7 20 0 0,0
19.09.2018 03:00:00 19,3 13,5 4 2 9 5 S 1017,7 20 0 0,0
19.09.2018 02:00:00 20,1 13,8 1 1 11 6 W 1017,5 20 0 -
19.09.2018 01:00:00 21,0 13,5 4 2 9 5 NW 1017,1 20 0 0,0
19.09.2018 00:00:00 22,7 13,8 4 2 8 5 SE 1016,7 20 0 0,0
18.09.2018 23:00:00 23,8 13,7 3 2 9 5 N 1016,2 20 0 0,0
18.09.2018 22:00:00 24,2 13,8 6 3 11 6 ENE 1015,8 20 0 0,0
18.09.2018 21:00:00 25,7 13,3 6 3 10 6 SW 1014,4 20 0 0,0
18.09.2018 20:00:00 28,0 12,3 7 4 37 20 WSW 1013,7 20 0 -
18.09.2018 19:00:00 32,7 10,0 8 5 22 12 WNW 1012,8 20 44 0,0
18.09.2018 18:00:00 33,9 10,5 5 3 27 15 WNW 1012,5 20 59 0,0
18.09.2018 17:00:00 33,8 10,4 8 4 24 13 NW 1012,6 20 60 0,0
18.09.2018 16:00:00 33,5 11,3 9 5 24 13 NW 1012,9 20 60 0,0
18.09.2018 15:00:00 32,9 11,4 7 4 23 12 W 1013,3 20 60 0,0
18.09.2018 14:00:00 31,8 11,6 5 3 17 9 SSE 1014,3 20 60 -
18.09.2018 13:00:00 30,2 12,1 7 4 21 12 ESE 1015,0 20 60 0,0
18.09.2018 12:00:00 28,2 13,0 7 4 19 11 E 1015,4 20 60 0,0
18.09.2018 11:00:00 26,3 13,8 9 5 20 11 E 1015,9 20 60 0,0
18.09.2018 10:00:00 24,2 14,0 12 6 17 9 E 1015,9 20 60 0,0
18.09.2018 09:00:00 20,5 14,4 6 3 12 6 E 1015,9 20 2 0,0
18.09.2018 08:00:00 19,7 14,0 7 4 13 7 NE 1015,5 20 0 -
18.09.2018 07:00:00 20,3 13,9 8 4 14 7 E 1015,0 20 0 0,0
18.09.2018 06:00:00 20,4 14,0 3 2 12 7 ENE 1014,8 20 0 0,0
18.09.2018 05:00:00 20,1 14,0 6 3 13 7 ENE 1014,8 20 0 0,0
18.09.2018 04:00:00 20,2 14,1 7 4 13 7 NE 1014,8 20 0 0,0
18.09.2018 03:00:00 19,8 13,5 4 2 7 4 SE 1014,7 20 0 0,0
18.09.2018 02:00:00 20,6 13,8 4 2 8 5 NNE 1014,4 20 0 -
18.09.2018 01:00:00 21,7 13,1 6 3 9 5 NE 1014,5 20 0 0,0
18.09.2018 00:00:00 23,2 12,8 2 1 13 7 NE 1014,2 20 0 0,0
17.09.2018 23:00:00 24,5 12,7 4 2 7 4 SSE 1013,2 20 0 0,0
17.09.2018 22:00:00 26,4 12,4 5 3 16 9 SSW 1012,8 20 0 0,0
17.09.2018 21:00:00 28,3 11,8 14 7 33 18 WSW 1011,5 20 0 0,0
17.09.2018 20:00:00 - - - - - - - - - - -
17.09.2018 19:00:00 32,7 9,4 12 7 26 14 SW 1010,1 20 53 0,0
17.09.2018 18:00:00 34,4 7,4 6 3 17 9 N 1010,3 20 60 0,0
17.09.2018 17:00:00 34,2 8,8 6 3 19 10 SW 1011,0 20 56 0,0
17.09.2018 16:00:00 33,8 9,8 4 2 22 12 N 1011,8 20 60 0,0
17.09.2018 15:00:00 32,5 12,2 10 6 29 16 E 1013,2 19 60 0,0
17.09.2018 14:00:00 31,4 12,7 10 5 27 15 E 1014,0 20 60 -
17.09.2018 13:00:00 30,5 13,3 11 6 32 17 E 1015,0 20 60 0,0
17.09.2018 12:00:00 29,3 14,3 14 8 34 19 ESE 1015,8 20 60 0,0
17.09.2018 11:00:00 26,9 13,9 13 7 28 15 E 1016,3 20 60 0,0
17.09.2018 10:00:00 23,8 13,1 10 5 17 9 NE 1016,7 20 52 0,0
17.09.2018 09:00:00 19,4 12,4 7 4 12 6 NE 1017,3 20 34 0,0
17.09.2018 08:00:00 16,6 12,5 6 4 13 7 ENE 1017,1 20 0 -
17.09.2018 07:00:00 16,5 12,4 6 3 12 6 NE 1016,9 20 0 0,0
17.09.2018 06:00:00 16,9 12,0 4 2 9 5 SE 1016,5 20 0 0,0
17.09.2018 05:00:00 17,9 13,0 5 3 9 5 ESE 1016,3 20 0 0,0
17.09.2018 04:00:00 18,5 12,7 6 4 10 6 NE 1016,4 20 0 0,0
17.09.2018 03:00:00 19,0 11,3 6 3 9 5 NE 1016,6 20 0 0,0
17.09.2018 02:00:00 20,3 11,4 6 3 10 5 E 1016,7 20 0 -
17.09.2018 01:00:00 21,4 11,1 5 3 8 4 E 1016,9 20 0 0,0
17.09.2018 00:00:00 23,1 11,2 2 1 8 4 W 1016,7 20 0 0,0
16.09.2018 23:00:00 24,7 10,5 4 2 11 6 SE 1016,8 20 0 0,0

tt = temperature
td = dewpoint
ff = wind speed
fx = gusts
dd = wind direction
ppp = reduced air pressure
vv = visibility
sd = sunshine duration
rr = precipitation

Next stations